星链-35220(STARLINK-35220)

导读 | 豆包AI

STARLINK-35220是美国太空探索技术公司(SpaceX)旗下星链(Starlink)星座的一颗低轨通信卫星,于2025年9月19日由猎鹰9号火箭从加利福尼亚范登堡太空军基地发射入轨。星链星座旨在为全球提供低成本宽带互联网服务,该卫星采用平板设计、氪工质霍尔推进器,具备自主避撞能力,服役寿命约5-7年,退役后将主动离轨并在大气层焚毁。

基本信息
目录编号:
65661
目录名称:
STARLINK-35220
国际标识:
2025-211K
轨道中心:
EARTH
卫星名称:
星链-35220
卫星全名:
星链-35220(STARLINK-35220)
卫星状态:
在轨 (已飞行176 天)
发射日期:
2025-09-19 UTC
国别 :
美国 (US)
星等 :
--
轨道信息
数据来源 国际轨道数据 AOE轨道数据
星历时间 2026-03-13T10:08:52+0800
1天前
查看轨道信息
2026-03-11T10:00:00+0800
3天前
查看轨道信息
半长轴 6927.654km 6927.65km
偏心率 0.000083 0.0000969
轨道倾角 97.602° 97.603°
近地点辐角 119.350° 101.665°
升交点赤经 117.421° 115.443°
平近点角 240.781° 191.284°
近地点 548.942km 548.841km
远地点 550.092km 550.185km
周期 95.640分钟 95.640分钟
每日圈数 15.056481 15.056495
详细信息
固有亮度:
5
最大亮度:
2.5
卫星平台:
Starlink V1.0
覆盖范围:
全球
运营商:
太空探索技术公司
运营商所在国:
美国
制造商(研发单位):
太空探索技术公司
制造商所在国:
美国
使用方式:
暂无
卫星简介
Starlink 计划是 SpaceX 推出的全球卫星互联网项目,通过发射低轨道卫星,为全球尤其是偏远地区提供高速、低延迟的互联网服务。自 2019 年起,Starlink 已部署数千颗卫星,旨在缩小全球数字鸿沟,推动互联网普及。该项目还为军事、航空等行业提供通信支持,带来广泛经济效益。
2D轨道图
3D轨道图
轨道高度分析图
轨道倾角分析图
轨道综合分析图
查看轨道综合分析图